Regional Weather Roundup
Issued by NWS Memphis, TN

Home | Current Version | Previous Version | Text Only | Print | Product List | Glossary On
Versions: 1 2 3 4 5 6 7 8 9 10 11 12 13 14 15 16 17 18 19 20 21 22 23 24 25 26 27 28 29 30 31 32 33 34 35 36 37 38 39 40 41 42 43 44 45 46 47 48 49 50
000
ASUS44 KMEG 231700
RWRMEG
MEMPHIS CWA HOURLY WEATHER ROUNDUP
NATIONAL WEATHER SERVICE MEMPHIS TN
1200 PM CDT SAT JUL 23 2016

...WEST TENNESSEE...

CITY           SKY/WX    TMP DP  RH WIND       PRES   REMARKS
MEMPHIS INTL   CLOUDY    83  72  69 S8        30.00S
NWS MEMPHIS      N/A     82 N/A N/A MISG        N/A
JACKSON        PTSUNNY   87  74  64 VRB5      30.00F HX  95
LEXINGTON      SUNNY     88  73  62 W7        30.00S HX  96
DYERSBURG      MOSUNNY   88  75  66 MISG      29.98F HX  97
UNION CITY     SUNNY     86  75  70 CALM      29.98F HX  95
PARIS          MOSUNNY   86  75  70 S5        30.01S HX  95


...EASTERN ARKANSAS...

CITY           SKY/WX    TMP DP  RH WIND       PRES   REMARKS
JONESBORO      CLOUDY    89  78  70 E9        29.96F HX 103
WEST MEMPHIS   PTSUNNY   85  74  69 SE10      29.97F HX  92
BATESVILLE     SUNNY     93  77  59 N5        29.97F HX 107
WALNUT RIDGE   SUNNY     90  77  66 E5        29.95F HX 102
BLYTHEVILLE    MOSUNNY   85  76  74 S3        29.98F HX  94
SEARCY         SUNNY     97  77  52 CALM      29.97F HX 112
STUTTGART      SUNNY     95  77  55 S7        29.97S HX 109
PINE BLUFF     SUNNY     93  76  57 SW6       29.97F HX 105
MONTICELLO     SUNNY     95  74  50 SE5       29.98S HX 105


...NORTH MISSISSIPPI...

CITY           SKY/WX    TMP DP  RH WIND       PRES   REMARKS
TUPELO         CLOUDY    76  72  87 CALM      30.04F
BATESVILLE     TSTM      74  71  91 CALM      30.04R
TUNICA         CLOUDY    81  72  74 SE6       30.00F
CLARKSDALE     MOSUNNY   82  79  89 E14       30.00S HX  93
GREENWOOD      PTSUNNY   89  74  60 NE9       30.01R HX  98
COLUMBUS       MOSUNNY   89  81  76 VRB1      30.01R HX 108
GOLDEN TRIANGL PTSUNNY   90  73  58 W5        30.01R HX  98


...SOUTHEAST MISSOURI...

CITY           SKY/WX    TMP DP  RH WIND       PRES   REMARKS
KENNETT        MOSUNNY   88  81  79 SE5       29.96F HX 105
WEST PLAINS    SUNNY     91  74  57 SW6       30.03F HX 100
POPLAR BLUFF   SUNNY     90  74  59 VRB3      29.97F HX  99
CAPE GIRARDEAU MOSUNNY   88  75  65 VRB5      29.97S HX  97


...NORTHWEST ALABAMA...

CITY           SKY/WX    TMP DP  RH WIND       PRES   REMARKS
MUSCLE SHOALS  MOSUNNY   91  75  59 W7        30.01F HX 101


...MIDDLE TENNESSEE...

CITY           SKY/WX    TMP DP  RH WIND       PRES   REMARKS
NASHVILLE      PTSUNNY   92  74  55 E8        30.00F HX 101
CLARKSVILLE    SUNNY     88  74  63 CALM      30.00S HX  96
COLUMBIA       SUNNY     93  73  52 SW6       29.99F HX 102


...WESTERN KENTUCKY...

CITY           SKY/WX    TMP DP  RH WIND       PRES   REMARKS
PADUCAH        SUNNY     88  74  63 VRB3      29.98F HX  96
FORT CAMPBELL  MOSUNNY   87  75  67 E2        29.99F HX  95


...CENTRAL ARKANSAS...

CITY           SKY/WX    TMP DP  RH WIND       PRES   REMARKS
LITTLE ROCK    MOSUNNY   96  79  57 CALM      29.96F HX 114


SKY/WX REPORTED AS FAIR MEANS FEW OR NO CLOUDS BELOW
12 THOUSAND FEET.





USA.gov is the U.S. government's official web portal to all federal, state and local government web resources and services.